Regional Weather Roundup
Issued by NWS Kansas City/Pleasant Hill, MO

Home | Current Version | Previous Version | Graphics & Text | Print | Product List | Glossary Off
Versions: 1 2 3 4 5 6 7 8 9 10 11 12 13 14 15 16 17 18 19 20 21 22 23 24 25 26 27 28 29 30 31 32 33 34 35 36 37 38 39 40 41 42 43 44 45 46 47 48 49 50

914
ASUS43 KEAX 151210
RWREAX

WEATHER ROUNDUP FOR EASTERN KANSAS AND NORTHWEST MISSOURI
NATIONAL WEATHER SERVICE KANSAS CITY/PLEASANT HILL MO
600 AM CST MON JAN 15 2018

KSZ040-057-103>105-MOZ028-029-037-043-151300-
...KANSAS CITY METROPOLITAN AREA...

CITY           SKY/WX    TMP DP  RH WIND       PRES   REMARKS
K.C. INTL      CLOUDY    14   4  64 N15G30    30.39R WCI  -1
6HR MIN TEMP:  14; 6HR MAX TEMP:  33;

K.C. DOWNTOWN  CLOUDY    18   5  57 NW18G26   30.39R WCI   2
6HR MIN TEMP:  18; 6HR MAX TEMP:  35;

LEES SUMMIT    CLOUDY    18   8  65 NW21G30   30.35R WCI   1
6HR MIN TEMP:  18; 6HR MAX TEMP:  33; 6HR PCP: TRACE;

OLATHE - IXD   CLOUDY    17   9  70 NW18G30   30.38R WCI   1
6HR MIN TEMP:  17; 6HR MAX TEMP:  33; 6HR PCP:  0.03;

OLATHE - OJC   CLOUDY    17   9  70 N21G28    30.36R WCI   0
6HR MIN TEMP:  17; 6HR MAX TEMP:  32; 6HR PCP:  0.01;

LAWRENCE       CLOUDY    17   7  64 NW21      30.42R WCI   0

$$

MOZ001>008-011>017-020>025-030>033-038>040-044>046-053-054-151300-
...NORTHERN AND CENTRAL MISSOURI...

CITY           SKY/WX    TMP DP  RH WIND       PRES   REMARKS
ST. JOSEPH       N/A    N/A N/A N/A MISG      30.43R
MOSBY          CLOUDY    18   9  68 N12G23    30.39R WCI   5
WARRENSBURG    CLOUDY    21  12  68 NW21G28   30.34R WCI   6
WHITEMAN AFB   PTCLDY    21  12  66 N20G26    30.28R WCI   6
6HR MIN TEMP:  21; 6HR MAX TEMP:  31; 6HR PCP:  0.03;

CLINTON        CLOUDY    25  18  74 N10       30.33R WCI  15
SEDALIA        CLOUDY    23  16  74 NW17      30.31R WCI   9
6HR MIN TEMP:  23; 6HR MAX TEMP:  33; 6HR PCP:  0.06;

WARSAW         NOT AVBL
CHILLICOTHE      N/A     17   8  67 NW12G22   30.35R WCI   4
6HR MIN TEMP:  17; 6HR MAX TEMP:  31;

KIRKSVILLE     CLEAR     10   4  76 NW14      30.28R WCI  -6
6HR MIN TEMP:  10; 6HR MAX TEMP:  29; 6HR PCP: TRACE;


$$

MOZ041-047>049-056>058-063>065-088>090-097-151300-
...EASTERN AND SOUTHERN MISSOURI...

CITY           SKY/WX    TMP DP  RH WIND       PRES   REMARKS
ST. LOUIS INTL LGT SNOW  28  26  92 SW13      30.19R FOG     WCI  17
6HR MIN TEMP:  25; 6HR MAX TEMP:  28; 6HR PCP:  0.06;

SPIRIT OF STL  LGT SNOW  28  27  96 W8        30.20R VSB 1   WCI  20
COLUMBIA       CLOUDY    26  18  71 NW15G25   30.25R WCI  14
JEFFERSON CITY CLOUDY    31  25  78 NW10      30.26R WCI  22
ROLLA          LGT SNOW  27  27 100 W8        30.22R FOG     WCI  19
OSAGE BEACH    LGT SNOW  28  27  93 NW9       30.28R FOG     WCI  20
SPRINGFIELD    LGT SNOW  31  29  92 NW6       30.26R FOG     WCI  25
BRANSON        CLOUDY    32  23  69 NW6       30.25R WCI  26
JOPLIN         LGT SNOW  31  31 100 N8        30.31R FOG     WCI  23
WEST PLAINS    CLOUDY    23  18  81 W5        30.24R WCI  17

$$

IAZ060-094-KSZ022-034>040-054-083-096-NEZ052-066-093-151300-
...KANSAS...SOUTHEAST NEBRASKA AND IOWA...

CITY           SKY/WX    TMP DP  RH WIND       PRES   REMARKS
TOPEKA         CLOUDY    18   9  68 N18G25    30.42R WCI   2
6HR MIN TEMP:  18; 6HR MAX TEMP:  35; 6HR PCP: TRACE;

MANHATTAN      CLOUDY    21  12  68 N12G20    30.44R WCI   9
EMPORIA        CLOUDY    23  18  81 N15G25    30.37R WCI  10
CHANUTE        LGT SNOW  29  27  92 N15G23    30.34R VSB 3/4 WCI  18
WICHITA        LGT SNOW  33  32  96 N16       30.33R FOG     WCI  23
OMAHA          PTCLDY     5  -4  66 NW20G29   30.44R WCI -15
LINCOLN        PTCLDY     5  -3  69 N15       30.49R WCI -13
FALLS CITY     CLOUDY     9   0  67 NW21G32   30.43R WCI -11
LAMONI         CLEAR      7  -2  66 NW20G25   30.33R WCI -13
DES MOINES     MOCLDY     4  -3  73 NW20G29   30.32R WCI -17

$$





USA.gov is the U.S. government's official web portal to all federal, state and local government web resources and services.